Time,TemperatureF,DewpointF,PressureIn,WindDirection,WindDirectionDegrees,WindSpeedMPH,WindSpeedGustMPH,Humidity,HourlyPrecipIn,Conditions,Clouds,dailyrainin,SolarRadiationWatts/m^2,SoftwareType,DateUTC
2015-03-03 00:02:00,23.0,15.6,30.23,SW,216,3.0,3.0,73,0.00,,,0.00,0,Wunderground v.1.15,2015-03-03 06:02:00,
2015-03-03 00:12:00,23.2,15.8,30.21,SW,216,4.0,5.0,73,0.00,,,0.00,0,Wunderground v.1.15,2015-03-03 06:12:00,
2015-03-03 00:22:00,23.3,15.9,30.19,SW,216,4.0,4.0,73,0.00,,,0.00,0,Wunderground v.1.15,2015-03-03 06:22:00,
2015-03-03 00:32:00,23.5,16.1,30.19,SSW,212,6.0,6.0,73,0.00,,,0.00,0,Wunderground v.1.15,2015-03-03 06:32:00,
2015-03-03 00:42:00,23.6,15.9,30.20,SSW,212,5.0,5.0,72,0.00,,,0.00,0,Wunderground v.1.15,2015-03-03 06:42:00,
2015-03-03 00:52:00,23.9,16.2,30.19,SW,216,6.0,6.0,72,0.00,,,0.00,0,Wunderground v.1.15,2015-03-03 06:52:00,
2015-03-03 01:02:00,24.1,16.1,30.19,SW,217,6.0,9.0,71,0.00,,,0.00,0,Wunderground v.1.15,2015-03-03 07:02:00,
2015-03-03 01:12:00,24.2,15.5,30.18,SSW,209,7.0,7.0,69,0.00,,,0.00,0,Wunderground v.1.15,2015-03-03 07:12:00,
2015-03-03 01:22:00,24.7,14.9,30.17,SSW,195,8.0,10.0,66,0.00,,,0.00,0,Wunderground v.1.15,2015-03-03 07:22:00,
2015-03-03 01:32:00,24.8,14.7,30.17,SSW,210,8.0,8.0,65,0.00,,,0.00,0,Wunderground v.1.15,2015-03-03 07:32:00,
2015-03-03 01:42:00,25.0,14.9,30.17,SSW,208,9.0,10.0,65,0.00,,,0.00,0,Wunderground v.1.15,2015-03-03 07:42:00,
2015-03-03 01:52:00,25.0,14.5,30.16,SSW,212,9.0,9.0,64,0.00,,,0.00,0,Wunderground v.1.15,2015-03-03 07:52:00,
2015-03-03 02:02:00,24.8,14.7,30.16,SSW,213,8.0,8.0,65,0.00,,,0.00,0,Wunderground v.1.15,2015-03-03 08:02:00,
2015-03-03 02:12:00,24.8,14.3,30.14,SW,223,8.0,11.0,64,0.00,,,0.00,0,Wunderground v.1.15,2015-03-03 08:12:00,
2015-03-03 02:22:00,24.8,14.7,30.13,SSW,202,9.0,11.0,65,0.00,,,0.00,0,Wunderground v.1.15,2015-03-03 08:22:00,
2015-03-03 02:32:00,23.9,16.8,30.13,SW,219,11.0,11.0,74,0.00,,,0.00,0,Wunderground v.1.15,2015-03-03 08:32:00,
2015-03-03 02:42:00,23.0,18.3,30.12,SSW,209,9.0,11.0,82,0.00,,,0.00,0,Wunderground v.1.15,2015-03-03 08:42:00,
2015-03-03 02:52:00,22.4,19.1,30.11,SSW,199,9.0,9.0,87,0.00,,,0.00,0,Wunderground v.1.15,2015-03-03 08:52:00,
2015-03-03 03:02:00,22.2,19.7,30.11,SSW,193,7.0,7.0,90,0.00,,,0.00,0,Wunderground v.1.15,2015-03-03 09:02:00,
2015-03-03 03:12:00,22.1,20.1,30.10,SSW,195,6.0,6.0,92,0.00,,,0.00,0,Wunderground v.1.15,2015-03-03 09:12:00,
2015-03-03 03:22:00,21.9,20.2,30.09,SSW,200,6.0,6.0,93,0.00,,,0.00,0,Wunderground v.1.15,2015-03-03 09:22:00,
2015-03-03 03:32:00,21.9,20.4,30.09,SSW,198,6.0,6.0,94,0.00,,,0.00,0,Wunderground v.1.15,2015-03-03 09:32:00,
2015-03-03 03:42:00,21.9,20.7,30.08,SSW,203,6.0,7.0,95,0.00,,,0.00,0,Wunderground v.1.15,2015-03-03 09:42:00,
2015-03-03 03:52:00,22.1,20.9,30.07,SSW,208,5.0,6.0,95,0.00,,,0.00,0,Wunderground v.1.15,2015-03-03 09:52:00,
2015-03-03 04:02:00,22.1,20.6,30.07,SSW,208,4.0,5.0,94,0.00,,,0.00,0,Wunderground v.1.15,2015-03-03 10:02:00,
2015-03-03 04:12:00,22.2,20.7,30.04,SSW,208,4.0,5.0,94,0.00,,,0.00,0,Wunderground v.1.15,2015-03-03 10:12:00,
2015-03-03 04:22:00,22.2,20.5,30.03,SSW,205,4.0,6.0,93,0.00,,,0.00,0,Wunderground v.1.15,2015-03-03 10:22:00,
2015-03-03 04:32:00,22.4,20.7,30.03,South,189,5.0,5.0,93,0.00,,,0.00,0,Wunderground v.1.15,2015-03-03 10:32:00,
2015-03-03 04:42:00,22.4,20.4,30.02,South,189,5.0,6.0,92,0.00,,,0.01,0,Wunderground v.1.15,2015-03-03 10:42:00,
2015-03-03 04:52:00,22.5,20.5,30.01,South,191,3.0,3.0,92,0.00,,,0.01,0,Wunderground v.1.15,2015-03-03 10:52:00,
2015-03-03 05:02:00,22.7,20.7,30.01,South,191,3.0,3.0,92,0.00,,,0.01,0,Wunderground v.1.15,2015-03-03 11:02:00,
2015-03-03 05:12:00,23.0,21.3,30.00,South,189,2.0,3.0,93,0.00,,,0.01,0,Wunderground v.1.15,2015-03-03 11:12:00,
2015-03-03 05:22:00,23.5,21.8,29.99,South,189,3.0,3.0,93,0.00,,,0.01,0,Wunderground v.1.15,2015-03-03 11:22:00,
2015-03-03 05:32:00,24.7,23.2,29.99,South,191,5.0,7.0,94,0.00,,,0.01,0,Wunderground v.1.15,2015-03-03 11:32:00,
2015-03-03 05:42:00,25.7,23.7,29.98,South,185,7.0,7.0,92,0.00,,,0.01,0,Wunderground v.1.15,2015-03-03 11:42:00,
2015-03-03 05:52:00,26.4,24.1,29.96,South,186,8.0,12.0,91,0.00,,,0.01,0,Wunderground v.1.15,2015-03-03 11:52:00,
2015-03-03 06:02:00,27.0,24.7,29.96,South,176,10.0,10.0,91,0.00,,,0.01,0,Wunderground v.1.15,2015-03-03 12:02:00,
2015-03-03 06:12:00,27.3,24.8,29.95,South,186,10.0,10.0,90,0.00,,,0.01,0,Wunderground v.1.15,2015-03-03 12:12:00,
2015-03-03 06:22:00,27.8,25.2,29.94,South,172,9.0,9.0,90,0.00,,,0.01,0,Wunderground v.1.15,2015-03-03 12:22:00,
2015-03-03 06:32:00,27.9,23.7,29.94,South,178,12.0,21.0,84,0.00,,,0.01,0,Wunderground v.1.15,2015-03-03 12:32:00,
2015-03-03 06:42:00,28.1,22.4,29.92,South,186,13.0,16.0,79,0.00,,,0.01,0,Wunderground v.1.15,2015-03-03 12:42:00,
2015-03-03 06:52:00,28.4,22.4,29.90,SSW,193,14.0,14.0,78,0.00,,,0.01,5,Wunderground v.1.15,2015-03-03 12:52:00,
2015-03-03 07:02:00,28.5,22.8,29.90,SSW,203,14.0,14.0,79,0.00,,,0.01,7,Wunderground v.1.15,2015-03-03 13:02:00,
2015-03-03 07:12:00,28.7,22.7,29.89,SE,131,12.0,12.0,78,0.00,,,0.01,7,Wunderground v.1.15,2015-03-03 13:12:00,
2015-03-03 07:22:00,28.8,22.8,29.87,SSW,192,13.0,16.0,78,0.00,,,0.01,14,Wunderground v.1.15,2015-03-03 13:22:00,
2015-03-03 07:32:00,29.0,23.0,29.87,South,182,16.0,16.0,78,0.00,,,0.01,14,Wunderground v.1.15,2015-03-03 13:32:00,
2015-03-03 07:42:00,28.4,23.6,29.86,South,178,16.0,16.0,82,0.00,,,0.01,33,Wunderground v.1.15,2015-03-03 13:42:00,
2015-03-03 07:52:00,27.8,24.2,29.85,South,186,13.0,17.0,86,0.00,,,0.01,12,Wunderground v.1.15,2015-03-03 13:52:00,
2015-03-03 08:02:00,27.0,25.2,29.85,SSW,195,16.0,16.0,93,0.00,,,0.01,30,Wunderground v.1.15,2015-03-03 14:02:00,
2015-03-03 08:12:00,27.2,26.2,29.84,SSW,200,14.0,14.0,96,0.00,,,0.01,21,Wunderground v.1.15,2015-03-03 14:12:00,
2015-03-03 08:22:00,27.0,26.0,29.83,SSW,199,15.0,15.0,96,0.00,,,0.01,30,Wunderground v.1.15,2015-03-03 14:22:00,
2015-03-03 08:32:00,26.9,25.9,29.83,South,184,14.0,14.0,96,0.00,,,0.01,33,Wunderground v.1.15,2015-03-03 14:32:00,
2015-03-03 08:42:00,26.7,26.0,29.80,South,182,13.0,13.0,97,0.00,,,0.01,37,Wunderground v.1.15,2015-03-03 14:42:00,
2015-03-03 08:52:00,26.9,26.4,29.80,SSE,168,13.0,13.0,98,0.00,,,0.01,51,Wunderground v.1.15,2015-03-03 14:52:00,
2015-03-03 09:02:00,27.0,26.5,29.80,SSE,155,14.0,14.0,98,0.00,,,0.01,91,Wunderground v.1.15,2015-03-03 15:02:00,
2015-03-03 09:12:00,27.3,26.8,29.78,South,189,12.0,12.0,98,0.00,,,0.01,84,Wunderground v.1.15,2015-03-03 15:12:00,
2015-03-03 09:22:00,27.5,27.3,29.76,SSW,193,11.0,11.0,99,0.00,,,0.02,86,Wunderground v.1.15,2015-03-03 15:22:00,